Date String (YYYY-MM-DD hh:mm:ss) UTC,Instrument flags,absolute air pressure of the measurement (hPa),sample flow rate (lpm),inlet stack bypass flow (lpm),air temperature of the measurement (°C),ambient temperature measured by the external sensor (°C),aerosol sample conditioner tube jacket temperature (°C),OPC LED temperature (°C),internal box temperature (°C),relative humidity of the measurement (%),span deviation,mass concentration of particles derived from Lorenz-Mie calculation of OPC scattering (μg/m³),mass concentration of particles derived from Lorenz-Mie calculation of OPC scattering (μg/m³),mass concentration of particles derived from Lorenz-Mie calculation of OPC scattering (μg/m³)
DateTimeUTC,F1_M11,P_M11,Q1_M11,Q2_M11,T1_M11,T2_M11,T3_M11,T4_M11,T5_M11,U1_M11,ZSPAN_M11,X2_M11,X0_M11,X1_M11
2024-03-26 17:00:00,SystemResetWarning,0820.5,5.00,000.00,019.0,018.6,000.0,027.4,020.8,15.9,0000.8,0011.48,0016.13,0011.09
2024-03-26 17:01:00,SystemResetWarning,0820.6,5.00,000.00,019.0,018.7,000.0,027.4,020.8,15.7,0000.8,0011.50,0016.09,0011.15
2024-03-26 17:02:00,SystemResetWarning,0820.6,5.00,000.00,019.0,018.7,000.0,027.4,020.8,15.5,0001.0,0011.54,0015.71,0011.19
2024-03-26 17:03:00,SystemResetWarning,0820.6,5.00,000.00,019.1,018.7,000.0,027.4,020.8,15.3,0000.7,0011.79,0016.02,0011.41
2024-03-26 17:04:00,SystemResetWarning,0820.6,4.99,000.00,019.1,018.7,000.0,027.4,020.9,15.3,0000.7,0012.05,0016.47,0011.64
2024-03-26 17:05:00,SystemResetWarning,0820.6,5.00,000.00,019.1,018.7,000.0,027.4,020.9,15.4,0000.7,0012.28,0016.55,0011.85
2024-03-26 17:06:00,SystemResetWarning,0820.5,5.00,000.00,019.1,018.7,000.0,027.4,020.9,15.6,0000.8,0012.52,0016.46,0012.06
2024-03-26 17:07:00,SystemResetWarning,0820.5,5.00,000.00,019.1,018.7,000.0,027.4,020.9,15.2,0000.4,0012.74,0016.71,0012.28
2024-03-26 17:08:00,SystemResetWarning,0820.6,5.00,000.00,019.1,018.7,000.0,027.4,020.9,15.1,0000.4,0012.97,0016.01,0012.49
2024-03-26 17:09:00,SystemResetWarning,0820.6,5.00,000.00,019.1,018.7,000.0,027.5,020.9,15.4,0000.4,0013.18,0015.58,0012.69
2024-03-26 17:10:00,SystemResetWarning,0820.6,5.00,000.00,019.1,018.7,000.0,027.5,020.9,15.3,0000.2,0013.39,0015.90,0012.88
2024-03-26 17:11:00,SystemResetWarning,0820.6,5.00,000.00,019.1,018.7,000.0,027.5,020.9,15.2,0000.0,0013.59,0016.66,0013.07
2024-03-26 17:12:00,SystemResetWarning,0820.6,5.00,000.00,019.1,018.7,000.0,027.5,020.9,15.3,0000.0,0013.76,0017.15,0013.20
2024-03-26 17:13:00,SystemResetWarning,0820.6,5.00,000.00,019.1,018.7,000.0,027.5,020.9,15.5,0000.2,0013.94,0017.39,0013.35
2024-03-26 17:14:00,SystemResetWarning,0820.6,5.00,000.00,019.2,018.8,000.0,027.5,020.9,15.6,0000.5,0013.96,0017.35,0013.36
2024-03-26 17:15:00,SystemResetWarning,0820.7,5.00,000.00,019.2,018.8,000.0,027.5,021.0,15.9,0000.5,0013.86,0017.06,0013.29
2024-03-26 17:16:00,SystemResetWarning,0820.6,5.00,000.00,019.2,018.8,000.0,027.5,021.0,15.7,0000.8,0013.79,0017.67,0013.21
2024-03-26 17:17:00,SystemResetWarning,0820.6,5.00,000.00,019.2,018.8,000.0,027.5,021.0,15.6,0000.7,0013.68,0017.50,0013.16
2024-03-26 17:18:00,SystemResetWarning,0820.6,5.00,000.00,019.2,018.8,000.0,027.5,021.0,15.5,0001.2,0013.62,0017.39,0013.09
2024-03-26 17:19:00,SystemResetWarning,0820.7,5.00,000.00,019.2,018.8,000.0,027.6,021.0,15.5,0001.3,0013.57,0017.31,0013.04
2024-03-26 17:20:00,SystemResetWarning,0820.7,5.00,000.00,019.2,018.8,000.0,027.6,021.0,15.6,0001.3,0013.48,0017.51,0012.96
2024-03-26 17:21:00,SystemResetWarning,0820.7,5.00,000.00,019.2,018.8,000.0,027.6,021.0,15.7,0001.3,0013.38,0017.82,0012.87
2024-03-26 17:22:00,SystemResetWarning,0820.7,5.00,000.00,019.2,018.8,000.0,027.6,021.0,15.7,0001.1,0013.24,0017.22,0012.73
2024-03-26 17:23:00,SystemResetWarning,0820.6,5.01,000.00,019.3,018.8,000.0,027.6,021.0,15.4,0000.9,0013.10,0016.78,0012.61
2024-03-26 17:24:00,SystemResetWarning,0820.6,5.00,000.00,019.3,018.9,000.0,027.6,021.0,15.5,0000.8,0013.01,0017.02,0012.55
2024-03-26 17:25:00,SystemResetWarning,0820.6,5.00,000.00,019.3,018.9,000.0,027.6,021.0,15.5,0001.0,0013.02,0017.46,0012.56
2024-03-26 17:26:00,SystemResetWarning,0820.6,4.99,000.00,019.3,018.9,000.0,027.6,021.1,15.4,0001.1,0013.05,0017.90,0012.56
2024-03-26 17:27:00,SystemResetWarning,0820.6,4.99,000.00,019.3,018.9,000.0,027.6,021.1,15.4,0000.9,0013.06,0017.83,0012.58
2024-03-26 17:28:00,SystemResetWarning,0820.6,5.00,000.00,019.3,018.9,000.0,027.6,021.1,15.4,0000.6,0013.08,0018.08,0012.59
2024-03-26 17:29:00,SystemResetWarning,0820.6,5.00,000.00,019.3,018.9,000.0,027.6,021.1,15.3,0000.3,0013.13,0018.29,0012.62
2024-03-26 17:30:00,SystemResetWarning,0820.5,5.01,000.00,019.3,018.9,000.0,027.7,021.1,15.5,0000.4,0013.15,0018.42,0012.62
2024-03-26 17:31:00,SystemResetWarning,0820.5,5.00,000.00,019.3,018.9,000.0,027.7,021.1,15.4,0000.3,0013.16,0018.39,0012.63
2024-03-26 17:32:00,SystemResetWarning,0820.7,5.00,000.00,019.3,018.9,000.0,027.7,021.1,15.4,0000.1,0013.09,0017.66,0012.57
2024-03-26 17:33:00,SystemResetWarning,0820.9,5.00,000.00,019.3,018.9,000.0,027.7,021.1,15.7,0000.3,0013.03,0017.65,0012.52
2024-03-26 17:34:00,SystemResetWarning,0820.9,5.00,000.00,019.4,018.9,000.0,027.7,021.1,15.6,0000.6,0013.04,0018.30,0012.50
2024-03-26 17:35:00,SystemResetWarning,0820.6,5.00,000.00,019.4,019.0,000.0,027.7,021.1,15.6,0000.6,0013.02,0018.32,0012.44
2024-03-26 17:36:00,SystemResetWarning,0820.6,5.01,000.00,019.4,019.0,000.0,027.7,021.1,15.7,0000.6,0012.96,0017.93,0012.42
2024-03-26 17:37:00,SystemResetWarning,0820.6,5.01,000.00,019.4,019.0,000.0,027.7,021.2,15.5,0000.6,0012.92,0017.52,0012.40
2024-03-26 17:38:00,SystemResetWarning,0820.6,5.00,000.00,019.4,019.0,000.0,027.7,021.2,15.6,0000.7,0012.90,0017.66,0012.38
2024-03-26 17:39:00,SystemResetWarning,0820.5,5.00,000.00,019.4,019.0,000.0,027.8,021.2,15.7,0000.7,0012.88,0017.96,0012.34
2024-03-26 17:40:00,SystemResetWarning,0820.5,5.00,000.00,019.4,019.0,000.0,027.8,021.2,15.6,0000.5,0012.81,0018.16,0012.27
2024-03-26 17:41:00,SystemResetWarning,0820.6,5.00,000.00,019.4,019.0,000.0,027.8,021.2,15.6,0000.5,0012.75,0018.09,0012.25
2024-03-26 17:42:00,SystemResetWarning,0820.6,5.00,000.00,019.4,019.0,000.0,027.8,021.2,15.4,0000.5,0012.73,0018.07,0012.24
2024-03-26 17:43:00,SystemResetWarning,0820.6,5.00,000.00,019.4,019.0,000.0,027.8,021.2,15.1,0000.2,0012.86,0018.24,0012.36
2024-03-26 17:44:00,SystemResetWarning,0820.7,5.00,000.00,019.5,019.0,000.0,027.8,021.2,14.9,0000.4,0013.10,0018.50,0012.59
2024-03-26 17:45:00,SystemResetWarning,0820.6,4.99,000.00,019.5,019.0,000.0,027.8,021.2,15.1,0000.6,0013.33,0018.38,0012.81
2024-03-26 17:46:00,SystemResetWarning,0820.6,5.00,000.00,019.5,019.1,000.0,027.8,021.3,15.3,0000.7,0013.50,0018.18,0012.98
2024-03-26 17:47:00,SystemResetWarning,0820.5,5.00,000.00,019.5,019.1,000.0,027.8,021.3,15.4,0000.8,0013.63,0018.88,0013.10
2024-03-26 17:48:00,SystemResetWarning,0820.6,5.00,000.00,019.5,019.1,000.0,027.8,021.3,15.4,0000.7,0013.71,0019.61,0013.15
2024-03-26 17:49:00,SystemResetWarning,0820.6,5.00,000.00,019.5,019.1,000.0,027.8,021.3,15.4,0000.9,0013.70,0019.59,0013.17
2024-03-26 17:50:00,SystemResetWarning,0820.6,5.00,000.00,019.5,019.1,000.0,027.9,021.3,15.6,0001.1,0013.76,0018.70,0013.22
2024-03-26 17:51:00,SystemResetWarning,0820.6,5.00,000.00,019.5,019.1,000.0,027.9,021.3,15.5,0001.3,0013.81,0018.87,0013.27
2024-03-26 17:52:00,SystemResetWarning,0820.6,5.00,000.00,019.5,019.1,000.0,027.9,021.3,15.2,0001.3,0013.83,0018.68,0013.28
2024-03-26 17:53:00,SystemResetWarning,0820.5,5.00,000.00,019.5,019.2,000.0,027.9,021.3,15.2,0001.3,0013.83,0018.67,0013.28
2024-03-26 17:54:00,SystemResetWarning,0820.5,5.01,000.00,019.6,019.2,000.0,027.9,021.3,15.2,0001.6,0013.79,0019.22,0013.25
2024-03-26 17:55:00,SystemResetWarning,0820.8,5.01,000.00,019.6,019.2,000.0,027.9,021.4,15.2,0001.7,0013.67,0019.34,0013.10
2024-03-26 17:56:00,SystemResetWarning,0820.5,5.00,000.00,019.6,019.2,000.0,027.9,021.4,15.2,0001.5,0013.47,0019.16,0012.94
2024-03-26 17:57:00,SystemResetWarning,0820.4,5.00,000.00,019.6,019.2,000.0,027.9,021.4,15.3,0001.7,0013.32,0019.46,0012.82
2024-03-26 17:58:00,SystemResetWarning,0820.5,4.99,000.00,019.6,019.2,000.0,027.9,021.4,15.1,0001.5,0013.25,0019.62,0012.75
2024-03-26 17:59:00,SystemResetWarning,0820.6,4.99,000.00,019.6,019.2,000.0,027.9,021.4,15.1,0001.3,0013.20,0018.89,0012.73
